{"data":{"norad_id":63123,"intl_designator":"2025-039V","name":"STARLINK-32948","alt_names":[],"object_type":"PAYLOAD","status":"ACTIVE","operator":null,"country":"US","launch_date":"2025-02-27","launch_site_code":"AFETR","launch_vehicle":null,"mission":null,"orbit_class":"UNKNOWN","rcs_meters":null,"size_class":null,"mass_kg":null,"dimensions":null,"purposes":["comms"],"wikipedia_slug":null,"has_3d_model":false,"image_url":null,"decayed_at":null,"tle_current":{"epoch":"2026-05-24T17:04:32.596896Z","epoch_age_seconds":110707,"freshness":"FRESH","line1":"1 63123U 25039V   26144.71148839  .00025931  00000+0  94789-3 0  9991","line2":"2 63123  43.0007 303.4239 0002065 270.0503  90.0112 15.27601434 69691","mean_motion":15.27601434,"eccentricity":0.0002065,"inclination_deg":43.0007,"raan_deg":303.4239,"arg_perigee_deg":270.0503,"mean_anomaly_deg":90.0112,"bstar":0.00094789,"rev_number":6969,"period_min":94.26542604306,"perigee_km":481.56809400767,"apogee_km":484.40173735885,"semimajor_km":6861.1219156833,"source":"CELESTRAK","updated_at":"2026-05-25T13:38:19.912944Z"}}}